| time (UTC) | temp F | wind direction | speed MPH | gust MPH | rain 1hr in | rain 24hr in | rain mn in | humidity % | barometer mb |
| 20260507214635 | 61 | 241 | 2.0 | 8.0 | 0.00 | 0.00 | 0.00 | 41 | 1009.0 |
| 20260507213642 | 61 | 213 | 1.0 | 7.0 | 0.00 | 0.00 | 0.00 | 40 | 1009.1 |
| 20260507212640 | 61 | 225 | 2.0 | 13.0 | 0.00 | 0.00 | 0.00 | 40 | 1008.9 |
| 20260507211644 | 60 | 215 | 4.0 | 13.0 | 0.00 | 0.00 | 0.00 | 40 | 1008.9 |
| 20260507210701 | 61 | 283 | 3.0 | 10.0 | 0.00 | 0.00 | 0.00 | 39 | 1008.8 |
| 20260507205639 | 62 | 156 | 1.0 | 9.0 | 0.00 | 0.00 | 0.00 | 39 | 1008.8 |
| 20260507204627 | 62 | 277 | 1.0 | 9.0 | 0.00 | 0.00 | 0.00 | 43 | 1008.8 |
| 20260507203606 | 61 | 168 | 2.0 | 11.0 | 0.00 | 0.00 | 0.00 | 41 | 1008.9 |
| 20260507202624 | 61 | 210 | 4.0 | 12.0 | 0.00 | 0.00 | 0.00 | 40 | 1008.9 |
| 20260507201625 | 62 | 217 | 4.0 | 12.0 | 0.00 | 0.00 | 0.00 | 41 | 1008.8 |
| 20260507200619 | 61 | 294 | 2.0 | 16.0 | 0.00 | 0.00 | 0.00 | 44 | 1008.9 |
| 20260507195610 | 62 | 205 | 8.0 | 16.0 | 0.00 | 0.00 | 0.00 | 41 | 1009.0 |
| 20260507194621 | 62 | 203 | 7.0 | 13.0 | 0.00 | 0.00 | 0.00 | 43 | 1009.2 |
| 20260507191315 | 60 | 191 | 4.0 | 14.0 | 0.00 | 0.00 | 0.00 | 45 | 1009.4 |
| 20260507190316 | 61 | 210 | 5.0 | 14.0 | 0.00 | 0.00 | 0.00 | 43 | 1009.5 |
| 20260507185331 | 61 | 203 | 7.0 | 14.0 | 0.00 | 0.00 | 0.00 | 45 | 1009.3 |
| 20260507184347 | 62 | 179 | 4.0 | 14.0 | 0.00 | 0.00 | 0.00 | 48 | 1009.6 |
| 20260507183317 | 61 | 219 | 6.0 | 14.0 | 0.00 | 0.00 | 0.00 | 45 | 1009.6 |
| 20260507182316 | 61 | 210 | 4.0 | 14.0 | 0.00 | 0.00 | 0.00 | 47 | 1009.6 |
| 20260507181247 | 60 | 193 | 7.0 | 14.0 | 0.00 | 0.00 | 0.00 | 47 | 1009.8 |
| 20260507175103 | 60 | 213 | 2.0 | 12.0 | 0.00 | 0.00 | 0.00 | 47 | 1009.8 |
| 20260507174102 | 60 | 168 | 5.0 | 12.0 | 0.00 | 0.00 | 0.00 | 49 | 1009.9 |
| 20260507173125 | 60 | 156 | 4.0 | 11.0 | 0.00 | 0.00 | 0.00 | 49 | 1010.1 |
| 20260507172136 | 60 | 273 | 2.0 | 9.0 | 0.00 | 0.00 | 0.00 | 48 | 1010.3 |
| 20260507171125 | 60 | 175 | 2.0 | 11.0 | 0.00 | 0.00 | 0.00 | 50 | 1010.4 |
| 20260507164952 | 59 | 338 | 1.0 | 11.0 | 0.00 | 0.00 | 0.00 | 45 | 1010.6 |
| 20260507163945 | 60 | 189 | 3.0 | 11.0 | 0.00 | 0.00 | 0.00 | 44 | 1010.6 |
| 20260507162934 | 60 | 345 | 0.0 | 6.0 | 0.00 | 0.00 | 0.00 | 46 | 1010.7 |
| 20260507161934 | 59 | 208 | 2.0 | 8.0 | 0.00 | 0.00 | 0.00 | 46 | 1010.9 |
| 20260507160909 | 58 | 206 | 2.0 | 7.0 | 0.00 | 0.00 | 0.00 | 49 | 1011.1 |
| 20260507155935 | 58 | 63 | 2.0 | 8.0 | 0.00 | 0.00 | 0.00 | 49 | 1011.1 |
| 20260507153839 | 58 | 154 | 2.0 | 11.0 | 0.00 | 0.00 | 0.00 | 48 | 1011.2 |
| 20260507152848 | 57 | 178 | 3.0 | 11.0 | 0.00 | 0.01 | 0.00 | 49 | 1011.3 |
| 20260507151851 | 58 | 160 | 0.0 | 8.0 | 0.00 | 0.01 | 0.00 | 52 | 1011.3 |
| 20260507150911 | 57 | 188 | 1.0 | 8.0 | 0.00 | 0.02 | 0.00 | 52 | 1011.5 |
| 20260507145916 | 58 | 325 | 0.0 | 5.0 | 0.00 | 0.02 | 0.00 | 54 | 1011.6 |
| 20260507144844 | 56 | 8 | 1.0 | 10.0 | 0.00 | 0.02 | 0.00 | 53 | 1011.8 |
| 20260507143813 | 56 | 115 | 3.0 | 10.0 | 0.00 | 0.02 | 0.00 | 59 | 1011.8 |
| 20260507142746 | 56 | 148 | 0.0 | 7.0 | 0.00 | 0.02 | 0.00 | 55 | 1012.0 |
| 20260507141806 | 55 | 101 | 2.0 | 9.0 | 0.00 | 0.06 | 0.00 | 55 | 1012.2 |
| 20260507140829 | 55 | 111 | 2.0 | 8.0 | 0.00 | 0.07 | 0.00 | 56 | 1012.4 |
| 20260507135803 | 55 | 164 | 0.0 | 7.0 | 0.00 | 0.07 | 0.00 | 60 | 1012.5 |
| 20260507134810 | 54 | 171 | 2.0 | 8.0 | 0.00 | 0.07 | 0.00 | 60 | 1012.6 |
| 20260507133808 | 54 | 164 | 3.0 | 8.0 | 0.00 | 0.07 | 0.00 | 59 | 1012.8 |
| 20260507132825 | 54 | 175 | 1.0 | 4.0 | 0.00 | 0.07 | 0.00 | 60 | 1012.8 |
| 20260507125519 | 53 | 103 | 0.0 | 2.0 | 0.00 | 0.07 | 0.00 | 78 | 1012.8 |
| 20260507124543 | 52 | 111 | 0.0 | 2.0 | 0.00 | 0.07 | 0.00 | 83 | 1012.8 |
| 20260507123531 | 51 | 128 | 0.0 | 0.0 | 0.00 | 0.07 | 0.00 | 88 | 1012.9 |
| 20260507122459 | 49 | 139 | 0.0 | 0.0 | 0.00 | 0.07 | 0.00 | 92 | 1012.9 |
| 20260507121441 | 47 | 85 | 0.0 | 1.0 | 0.00 | 0.07 | 0.00 | 93 | 1012.9 |
| 20260507120409 | 46 | 79 | 0.0 | 1.0 | 0.00 | 0.08 | 0.00 | 94 | 1012.9 |
| 20260507115419 | 45 | 137 | 0.0 | 0.0 | 0.00 | 0.08 | 0.00 | 94 | 1012.9 |
| 20260507114439 | 44 | 94 | 0.0 | 0.0 | 0.00 | 0.08 | 0.00 | 94 | 1012.8 |
| 20260507113451 | 43 | 101 | 0.0 | 0.0 | 0.00 | 0.08 | 0.00 | 94 | 1012.8 |
| 20260507112424 | 42 | 126 | 0.0 | 1.0 | 0.00 | 0.08 | 0.00 | 94 | 1012.7 |
| 20260507111409 | 42 | 177 | 0.0 | 1.0 | 0.00 | 0.08 | 0.00 | 94 | 1012.6 |
| 20260507110336 | 42 | 94 | 0.0 | 0.0 | 0.00 | 0.08 | 0.00 | 94 | 1012.4 |
| 20260507105350 | 41 | 164 | 0.0 | 0.0 | 0.00 | 0.08 | 0.00 | 94 | 1012.2 |
| 20260507104319 | 41 | 164 | 0.0 | 0.0 | 0.00 | 0.10 | 0.00 | 94 | 1012.2 |
| 20260507103314 | 41 | 164 | 0.0 | 0.0 | 0.00 | 0.11 | 0.00 | 94 | 1012.2 |
| 20260507102301 | 41 | 164 | 0.0 | 0.0 | 0.00 | 0.13 | 0.00 | 94 | 1012.2 |
| 20260507100140 | 40 | 164 | 0.0 | 0.0 | 0.00 | 0.18 | 0.00 | 92 | 1011.9 |
| 20260507095149 | 40 | 164 | 0.0 | 0.0 | 0.00 | 0.20 | 0.00 | 92 | 1011.9 |
| 20260507094118 | 41 | 164 | 0.0 | 0.0 | 0.00 | 0.20 | 0.00 | 92 | 1011.8 |
| 20260507093116 | 42 | 164 | 0.0 | 0.0 | 0.00 | 0.21 | 0.00 | 92 | 1011.8 |
| 20260507092116 | 42 | 164 | 0.0 | 0.0 | 0.00 | 0.22 | 0.00 | 91 | 1011.8 |
| 20260507091139 | 42 | 164 | 0.0 | 0.0 | 0.00 | 0.23 | 0.00 | 91 | 1012.1 |
| 20260507090127 | 43 | 164 | 0.0 | 0.0 | 0.00 | 0.25 | 0.00 | 91 | 1012.2 |
| 20260507085123 | 43 | 164 | 0.0 | 0.0 | 0.00 | 0.26 | 0.00 | 90 | 1012.2 |
| 20260507084057 | 44 | 164 | 0.0 | 0.0 | 0.00 | 0.27 | 0.00 | 89 | 1012.2 |
| 20260507083113 | 44 | 164 | 0.0 | 0.0 | 0.00 | 0.27 | 0.00 | 89 | 1012.2 |
| 20260507082043 | 45 | 165 | 0.0 | 0.0 | 0.00 | 0.28 | 0.00 | 88 | 1012.1 |
| 20260507081051 | 45 | 164 | 0.0 | 0.0 | 0.00 | 0.28 | 0.00 | 85 | 1012.1 |
| 20260507075002 | 46 | 298 | 0.0 | 0.0 | 0.00 | 0.30 | 0.00 | 81 | 1011.9 |
| 20260507074012 | 46 | 302 | 0.0 | 0.0 | 0.00 | 0.31 | 0.00 | 80 | 1011.9 |
| 20260507073001 | 47 | 302 | 0.0 | 0.0 | 0.00 | 0.31 | 0.00 | 80 | 1011.9 |
| 20260507071943 | 48 | 310 | 0.0 | 0.0 | 0.00 | 0.31 | 0.00 | 79 | 1011.9 |
| 20260507070949 | 48 | 310 | 0.0 | 0.0 | 0.00 | 0.31 | 0.00 | 78 | 1011.9 |
| 20260507064857 | 49 | 286 | 0.0 | 0.0 | 0.00 | 0.31 | 0.00 | 79 | 1011.8 |
| 20260507063833 | 49 | 286 | 0.0 | 3.0 | 0.00 | 0.31 | 0.00 | 80 | 1011.8 |
| 20260507062827 | 49 | 326 | 1.0 | 3.0 | 0.00 | 0.31 | 0.00 | 80 | 1011.8 |
| 20260507061808 | 49 | 281 | 0.0 | 2.0 | 0.00 | 0.31 | 0.00 | 82 | 1011.9 |
| 20260507060822 | 49 | 302 | 0.0 | 2.0 | 0.00 | 0.31 | 0.00 | 85 | 1012.1 |
| 20260507055831 | 49 | 310 | 0.0 | 0.0 | 0.00 | 0.31 | 0.00 | 84 | 1012.2 |
| 20260507054831 | 50 | 284 | 0.0 | 0.0 | 0.00 | 0.31 | 0.00 | 83 | 1012.3 |
| 20260507052642 | 50 | 281 | 0.0 | 0.0 | 0.00 | 0.32 | 0.00 | 79 | 1012.5 |
| 20260507051654 | 50 | 281 | 0.0 | 0.0 | 0.00 | 0.32 | 0.00 | 78 | 1012.5 |
| 20260507050718 | 50 | 281 | 0.0 | 0.0 | 0.00 | 0.32 | 0.00 | 78 | 1012.6 |
| 20260507045721 | 50 | 281 | 0.0 | 0.0 | 0.00 | 0.32 | 0.00 | 80 | 1012.5 |
| 20260507044734 | 50 | 274 | 0.0 | 1.0 | 0.00 | 0.32 | 0.00 | 80 | 1012.6 |
| 20260507043748 | 51 | 287 | 0.0 | 0.0 | 0.00 | 0.32 | 0.00 | 81 | 1012.5 |
| 20260507042755 | 51 | 298 | 0.0 | 0.0 | 0.00 | 0.32 | 0.00 | 81 | 1012.3 |
| 20260507041812 | 51 | 305 | 0.0 | 0.0 | 0.00 | 0.32 | 0.00 | 81 | 1012.4 |
| 20260507034525 | 51 | 325 | 0.0 | 0.0 | 0.00 | 0.32 | 0.32 | 82 | 1012.3 |
| 20260507033459 | 52 | 325 | 0.0 | 0.0 | 0.00 | 0.32 | 0.32 | 81 | 1012.5 |
| 20260507032444 | 52 | 325 | 0.0 | 0.0 | 0.00 | 0.32 | 0.32 | 83 | 1012.1 |
| 20260507030339 | 52 | 325 | 0.0 | 0.0 | 0.00 | 0.32 | 0.32 | 82 | 1012.0 |
| 20260507025358 | 52 | 291 | 0.0 | 2.0 | 0.00 | 0.32 | 0.32 | 84 | 1012.0 |
| 20260507024337 | 52 | 300 | 0.0 | 1.0 | 0.00 | 0.32 | 0.32 | 84 | 1011.7 |
| 20260507023328 | 52 | 300 | 0.0 | 0.0 | 0.00 | 0.32 | 0.32 | 85 | 1011.9 |
| 20260507020103 | 52 | 285 | 0.0 | 0.0 | 0.00 | 0.32 | 0.32 | 89 | 1011.7 |
| 20260507015108 | 53 | 164 | 0.0 | 0.0 | 0.00 | 0.32 | 0.32 | 89 | 1011.4 |
| 20260507014125 | 53 | 164 | 0.0 | 0.0 | 0.00 | 0.32 | 0.32 | 89 | 1011.1 |
| 20260507012022 | 53 | 295 | 0.0 | 0.0 | 0.00 | 0.32 | 0.32 | 89 | 1011.1 |
| 20260507010956 | 53 | 295 | 0.0 | 0.0 | 0.00 | 0.32 | 0.32 | 89 | 1010.9 |
| 20260507010003 | 53 | 296 | 0.0 | 0.0 | 0.00 | 0.32 | 0.32 | 88 | 1010.9 |
| 20260507004930 | 53 | 295 | 0.0 | 0.0 | 0.00 | 0.32 | 0.32 | 88 | 1011.0 |
| 20260507002738 | 54 | 185 | 0.0 | 0.0 | 0.00 | 0.32 | 0.32 | 85 | 1011.0 |
| 20260507001748 | 54 | 184 | 0.0 | 0.0 | 0.00 | 0.32 | 0.32 | 83 | 1011.3 |
| 20260506233423 | 55 | 189 | 0.0 | 0.0 | 0.00 | 0.32 | 0.32 | 80 | 1010.9 |
| 20260506231237 | 55 | 208 | 0.0 | 0.0 | 0.00 | 0.32 | 0.32 | 79 | 1011.0 |
| 20260506230240 | 55 | 197 | 0.0 | 0.0 | 0.00 | 0.32 | 0.32 | 79 | 1010.9 |
| 20260506225221 | 55 | 213 | 0.0 | 0.0 | 0.00 | 0.32 | 0.32 | 79 | 1010.7 |
| 20260506224151 | 55 | 241 | 0.0 | 0.0 | 0.00 | 0.32 | 0.32 | 79 | 1010.6 |
| 20260506223133 | 55 | 269 | 0.0 | 0.0 | 0.00 | 0.32 | 0.32 | 79 | 1010.5 |
| 20260506222118 | 55 | 255 | 0.0 | 0.0 | 0.00 | 0.32 | 0.32 | 79 | 1010.4 |